DateTimeUTC,F1_A11,F1_S11,BsB_S11,BsG_S11,BsR_S11,BbsB_S11,BbsG_S11,BbsR_S11,BaB_A11,BaG_A11,BaR_A11,Tu_S11,T_S11,Uu_S11,U_S11,P_S11,T1_A11
2021-06-25T21:00:00Z,00000200,20000000,,,,,,,0000.17,0000.13,0000.12,18.2,24.9,05.9,03.9,0667.0,31.1
2021-06-25T21:01:00Z,00000200,20000000,,,,,,,-000.08,-000.10,-000.13,18.2,24.9,05.9,03.9,0667.0,31.1
2021-06-25T21:02:00Z,00000200,20000000,,,,,,,0000.13,-000.21,0000.31,18.2,24.9,05.9,03.9,0667.1,31.1
2021-06-25T21:03:00Z,00000200,60000000,,,,,,,0000.32,0000.64,-000.06,18.1,24.9,05.9,03.9,0667.1,31.1
2021-06-25T21:04:00Z,00000200,40000000,0000.23,0000.90,0000.37,0000.09,0000.20,0000.08,0000.07,-000.02,0000.37,18.2,24.7,05.7,03.8,0668.1,31.1
2021-06-25T21:05:00Z,00000200,00000000,0000.79,0000.38,0000.46,0000.09,0000.14,0000.27,0000.26,0000.30,0000.20,18.3,24.7,05.8,03.9,0668.2,31.1
2021-06-25T21:06:00Z,00000200,00000000,0000.73,0000.75,0000.52,0000.14,0000.09,0000.23,0000.17,0000.05,-000.01,18.4,24.7,05.8,03.9,0668.1,31.1
2021-06-25T21:07:00Z,00000200,00000000,0000.86,0000.65,0000.38,0000.71,0000.07,-000.03,-000.00,0000.46,0000.14,18.4,24.8,05.7,03.9,0668.3,31.1
2021-06-25T21:08:00Z,00000200,00000000,0001.33,0000.66,0000.35,0000.61,0000.33,-000.17,0000.37,-000.21,0000.05,18.5,24.7,05.8,03.9,0668.3,31.1
2021-06-25T21:09:00Z,00000200,00000000,0001.33,0000.67,0000.20,0000.39,0000.16,0000.21,-000.12,-000.10,-000.19,18.5,24.8,05.7,03.9,0668.3,31.1
2021-06-25T21:10:00Z,00000200,00000000,0000.95,0000.69,0000.66,0000.54,0000.50,0000.08,0000.44,0000.60,0000.75,18.4,24.8,05.7,03.9,0668.2,31.1
2021-06-25T21:11:00Z,00000200,00000000,0001.18,0000.55,0000.54,0000.72,0000.12,0000.11,0000.37,0000.37,-000.21,18.4,24.7,05.6,03.8,0668.1,31.1
2021-06-25T21:12:00Z,00000200,00000000,0000.27,0000.57,0000.55,0000.33,0000.11,0000.33,0000.34,0000.12,0000.56,18.4,24.7,05.8,03.9,0668.2,31.1
2021-06-25T21:13:00Z,00000200,00000000,0001.24,0000.89,0000.53,0000.62,0000.30,0000.22,-000.15,-000.40,0000.14,18.3,24.7,05.9,04.0,0668.2,31.1
2021-06-25T21:14:00Z,00000200,00000000,0001.07,0001.24,0000.49,0000.48,-000.06,-000.16,0000.42,0000.67,0000.10,18.3,24.6,05.9,04.0,0668.4,31.1
2021-06-25T21:15:00Z,00000200,00000000,0000.48,0000.50,0000.18,0000.28,0000.43,-000.10,0000.04,0000.26,-000.20,18.3,24.6,05.7,03.9,0668.3,31.1
2021-06-25T21:16:00Z,00000200,00000000,0000.68,0000.84,0000.38,0000.26,0000.25,0000.24,0000.36,-000.18,0000.07,18.3,24.6,05.8,03.9,0668.4,31.1
2021-06-25T21:17:00Z,00000200,00000000,0000.24,0000.57,0000.36,0000.50,0000.29,-000.00,0000.06,0000.34,0000.01,18.2,24.6,05.7,03.9,0668.2,31.1
2021-06-25T21:18:00Z,00000200,00000000,0000.71,0001.19,0000.35,0000.34,0000.15,-000.19,0000.52,0000.46,0000.82,18.2,24.6,05.7,03.9,0668.2,31.0
2021-06-25T21:19:00Z,00000200,00000000,0000.59,0001.00,0000.41,-000.02,0000.33,0000.23,0000.08,0000.09,0000.10,18.3,24.6,05.6,03.8,0668.2,31.1
2021-06-25T21:20:00Z,00000200,00000000,0001.68,0000.65,0000.50,0000.70,0000.24,0000.01,0000.29,0000.13,-000.04,18.3,24.6,05.9,04.0,0668.3,31.1
2021-06-25T21:21:00Z,00000200,00000000,0000.74,0001.01,0000.32,0001.04,0000.16,0000.22,0000.46,0000.31,0000.18,18.4,24.6,05.9,04.0,0668.2,31.1
2021-06-25T21:22:00Z,00000200,00000000,0000.85,0000.61,0000.41,0000.86,0000.24,-000.03,-000.05,0000.06,0000.02,18.4,24.7,05.8,03.9,0668.1,31.1
2021-06-25T21:23:00Z,00000200,00000000,0000.76,0000.76,0000.41,0000.24,0000.17,0000.40,0000.43,0000.47,0000.66,18.5,24.7,05.8,03.9,0668.2,31.1
2021-06-25T21:24:00Z,00000200,00000000,0000.96,0000.64,0000.57,0000.44,0000.35,0000.12,-000.11,0000.04,-000.37,18.5,24.8,05.7,03.9,0668.4,31.1
2021-06-25T21:25:00Z,00000200,00000000,0000.61,0000.63,0000.73,0000.84,0000.27,0000.03,-000.02,-000.22,-000.33,18.5,24.8,05.7,03.9,0668.5,31.1
2021-06-25T21:26:00Z,00000200,00000000,0000.43,0000.66,0000.56,0000.23,0000.16,0000.13,0000.25,0000.61,0000.55,18.5,24.8,05.7,03.9,0668.4,31.1
2021-06-25T21:27:00Z,00000200,00000000,0001.55,0000.64,0000.50,0000.41,0000.26,0000.00,0000.32,-000.22,0000.11,18.5,24.7,05.6,03.8,0668.3,31.1
2021-06-25T21:28:00Z,00000200,00000000,0000.78,0000.53,0000.18,0000.45,0000.31,0000.04,0000.13,0000.41,0000.05,18.5,24.7,05.5,03.8,0668.5,31.1
2021-06-25T21:29:00Z,00000200,00000000,0001.44,0000.51,0000.10,0000.09,-000.00,-000.15,0000.05,0000.12,0000.01,18.4,24.7,05.6,03.8,0668.5,31.1
2021-06-25T21:30:00Z,00000200,00000000,0000.69,0000.65,0000.36,0000.18,0000.18,0000.15,0000.26,-000.01,0000.41,18.4,24.7,05.7,03.9,0668.6,31.1
2021-06-25T21:31:00Z,00000200,00000000,0000.84,0000.74,0000.46,0000.26,0000.29,-000.10,0000.05,0000.09,-000.03,18.4,24.6,05.6,03.8,0668.5,31.1
2021-06-25T21:32:00Z,00000200,00000000,0000.59,0000.64,0000.52,0000.21,-000.06,0000.24,0000.14,0000.32,0000.08,18.3,24.6,05.5,03.7,0668.6,31.1
2021-06-25T21:33:00Z,00000200,00000000,0000.85,0000.68,0000.23,0000.84,0000.03,0000.06,0000.29,0000.02,0000.34,18.3,24.6,05.5,03.8,0668.5,31.1
2021-06-25T21:34:00Z,00000200,00000000,0001.41,0000.62,0000.60,0000.83,-000.11,0000.35,0000.20,0000.37,0000.36,18.4,24.6,05.4,03.7,0668.5,31.1
2021-06-25T21:35:00Z,00000200,00000000,0001.15,0000.60,0000.40,0000.75,-000.17,0000.09,0000.10,0000.15,0000.09,18.4,24.7,05.5,03.7,0668.5,31.1
2021-06-25T21:36:00Z,00000200,00000000,0001.08,0000.49,0000.35,0000.91,0000.09,-000.11,0000.32,0000.27,0000.11,18.5,24.7,05.4,03.7,0668.4,31.1
2021-06-25T21:37:00Z,00000200,00000000,0000.90,0001.03,0000.56,0000.30,0000.04,0000.14,0000.24,-000.02,-000.09,18.6,24.7,05.4,03.7,0668.5,31.1
2021-06-25T21:38:00Z,00000200,00000000,0000.98,0000.79,0000.48,0000.55,-000.23,0000.22,-000.22,-000.20,-000.06,18.6,24.8,05.3,03.6,0668.6,31.1
2021-06-25T21:39:00Z,00000200,00000000,0001.03,0000.84,0000.64,-000.14,0000.03,0000.19,0000.32,0000.70,0000.37,18.6,24.8,05.3,03.6,0668.5,31.1
2021-06-25T21:40:00Z,00000200,00000000,0000.67,0000.64,0000.74,0000.72,0000.13,0000.46,0000.00,-000.14,-000.09,18.6,24.8,05.1,03.5,0668.6,31.1
2021-06-25T21:41:00Z,00000200,00000000,0001.33,0000.77,0000.78,0000.18,0000.26,0000.19,0000.13,-000.07,0000.23,18.5,24.7,05.2,03.6,0668.6,31.1
2021-06-25T21:42:00Z,00000200,00000000,0001.00,0000.26,0000.40,0000.03,0000.03,0000.04,0000.43,0000.43,0000.05,18.5,24.8,05.3,03.6,0668.6,31.1
2021-06-25T21:43:00Z,00000200,00000000,0000.74,0000.57,0000.59,0000.70,-000.25,-000.01,-000.09,0000.10,0000.25,18.5,24.7,05.1,03.5,0668.7,31.1
2021-06-25T21:44:00Z,00000200,00000000,0000.97,0001.01,0000.25,0001.01,-000.10,-000.16,0000.18,0000.35,-000.03,18.4,24.7,05.2,03.5,0668.7,31.1
2021-06-25T21:45:00Z,00000200,00000000,0000.93,0000.53,-000.00,0000.21,0000.02,-000.01,0000.09,-000.20,-000.03,18.4,24.7,05.2,03.5,0668.6,31.1
2021-06-25T21:46:00Z,00000200,00000000,0000.67,0000.82,0000.45,0000.71,0000.48,0000.10,0000.24,0000.41,0000.35,18.4,24.7,05.2,03.5,0668.7,31.1
2021-06-25T21:47:00Z,00000200,00000000,0000.74,0000.22,0000.09,0000.22,0000.13,0000.11,0000.21,0000.04,-000.03,18.3,24.6,05.2,03.5,0668.6,31.1
2021-06-25T21:48:00Z,00000200,00000000,0000.88,0000.66,0000.33,0000.45,0000.01,0000.22,0000.30,0000.32,0000.09,18.3,24.6,05.3,03.6,0668.5,31.1
2021-06-25T21:49:00Z,00000200,00000000,0000.55,0000.57,0000.32,0000.33,0000.14,0000.30,0000.03,0000.02,0000.20,18.4,24.6,05.3,03.6,0668.3,31.1
2021-06-25T21:50:00Z,00000200,00000000,0001.02,0000.64,0000.34,0001.05,0000.21,0000.10,0000.28,-000.13,0000.06,18.4,24.7,05.1,03.5,0668.5,31.1
2021-06-25T21:51:00Z,00000200,00000000,0001.16,0000.81,0000.39,0000.04,0000.06,0000.31,0000.00,0000.49,0000.16,18.4,24.7,05.1,03.5,0668.6,31.1
2021-06-25T21:52:00Z,00000200,00000000,0000.96,0000.65,0000.25,0000.64,0000.10,0000.17,0000.37,0000.07,0000.13,18.5,24.7,05.1,03.5,0668.4,31.1
2021-06-25T21:53:00Z,00000200,00010000,0000.99,0000.45,-000.00,0000.43,0000.15,-000.17,-000.04,-000.04,-000.01,18.5,24.8,05.1,03.5,0668.6,31.1
2021-06-25T21:54:00Z,00000200,00000000,0001.29,0000.72,0000.74,0000.26,0000.12,0000.02,0000.06,0000.17,-000.18,18.5,24.7,05.0,03.4,0668.4,31.1
2021-06-25T21:55:00Z,00000200,00000000,0001.19,0000.80,0000.56,0000.24,0000.03,0000.17,0000.21,0000.44,0000.31,18.4,24.7,04.9,03.3,0668.5,31.1
2021-06-25T21:56:00Z,00000200,00000000,0000.87,0000.64,0000.49,0000.46,0000.06,0000.06,0000.14,0000.08,0000.13,18.4,24.7,05.0,03.4,0668.6,31.1
2021-06-25T21:57:00Z,00000200,40000000,,,,,,,0000.31,-000.05,0000.28,18.4,24.7,04.9,03.3,0668.4,31.1
2021-06-25T21:58:00Z,00000200,60000000,,,,,,,-000.40,-000.33,-000.37,18.1,24.8,05.1,03.4,0667.3,31.1
2021-06-25T21:59:00Z,00000200,20000000,,,,,,,0000.20,0000.15,0000.16,18.1,24.9,05.0,03.3,0667.2,31.1
